THOR ABLESTAR DEB, 333

Orbit data source: Space-Track

THOR ABLESTAR DEB, 333 is space debris in LEO originally from a launch on Thu, 29 Jun 1961 UTC launched from the Air Force Eastern Test Range (AFETR). Debris objects in space refer to the collection of defunct objects orbiting the Earth. Examples of debris include non-operational satellites, rocket bodies, and fragments generated from explosions, collisions, or faulty payload assembly.

Loading next visibility...
Identifier
333, 1961-015DK
Orbit
LEO
Country
Flag of USUS
Related business
Manufacturer
Unknown
Mission
Spacecraft
Bus & Motor
Unknown
Mass
Unknown
Launch date (UTC)
1961-06-29 (64 years ago)
Launch vehicle
Unknown
Launch site
Air Force Eastern Test Range (AFETR)
Object type
Payload
Rocket body
Debris
Shape & HBR
Unknown
Radar Cross Section
Small (<0.1 m²)

Expand to show TLE details & history
Last TLE update: 7 hours ago

TLE from 7 hours ago
0 THOR ABLESTAR DEB
1 00333U 61015DK  25258.58654971  .00007809  00000-0  10406-2 0  9996
2 00333  66.7012 206.9827 0033749 155.6799 204.5926 14.79742190348103
Epoch: 2025-09-15T14:04Z
TLE epoch observation values (Epoch: 2025-09-15T14:04:37.894Z)
Latitude
-0.00009°
Longitude
1.03569°
Altitude
653.817 km
Speed
7.52 km/s
True Right ascension
13h 47m 55s
True Declination
0° 00' 00"
Sunlit
Object was in daylight at epoch
Visualization orbit readout
Latitude
Unknown
Longitude
Unknown
Altitude
Unknown
Speed
Unknown
Apparent Right ascension
Unknown
Apparent Declination
Unknown
Sunlit
N/A
Visualization observer readout
Local Sidereal Time
13:27:56
Azimuth
Unknown
Elevation
Unknown
Doppler factor
Unknown
Orbital elements
Apogee altitude
652.122 km
Perigee altitude
604.829 km
Semi-major axis
7,006.612 km
Eccentricity
0.00337
Inclination
66.7012°
RAAN
206.9827°
Arg. of periapsis
155.6799°
True anomaly
204.43227°
Mean anomaly
204.5926°
Eccentric anomaly
204.51237°
Mean motion
3.70068 °/min
Orbital period
97.28 mins
BSTAR
0.0010406
Loading maneuver chart data...
Computing Atmospheric mass density...

Documentation

Showing up to 5 results
|